Vorticity
14 12 10 5 2 4 11 -6 2 8 9 5 -2 1 0 6 2 -0 -3 10 6 5 6 7 9 7 7 11 10 10 8 7 7 7 6 5 5 5 6 5 5 5 5 4 5 5 5 5 6
15 12 11 -4 2 4 8 0 8 5 5 10 2 4 10 -4 8 13 12 8 6 4 4 9 10 7 7 10 10 10 8 7 7 6 5 5 5 5 6 5 4 5 4 4 4 5 5 6 6
13 11 -3 5 8 4 3 9 4 4 7 -1 3 5 5 -0 3 9 8 7 6 4 4 9 10 7 10 10 7 7 6 6 6 5 4 4 4 4 5 5 4 5 4 4 5 6 6 6 6
16 20 4 3 4 9 3 4 8 13 10 3 1 13 2 0 3 1 5 8 9 7 5 8 9 8 9 9 5 6 6 6 5 4 4 4 3 4 4 4 5 5 5 5 6 6 6 6 6
17 -2 8 11 2 5 1 -5 7 12 8 6 3 7 3 2 2 4 4 7 9 8 7 8 9 7 7 7 5 5 5 5 4 4 3 3 4 4 5 5 5 6 5 6 6 6 7 7 6
8 10 7 7 10 8 0 7 4 4 5 6 8 6 0 6 6 4 4 5 7 9 9 8 10 9 8 6 5 4 5 5 4 4 4 4 5 5 5 5 5 5 6 6 6 7 7 7 6
15 4 3 6 9 10 4 7 1 1 9 10 2 2 -1 13 4 3 4 4 5 7 10 10 11 10 10 5 6 5 5 5 5 4 3 3 4 5 5 5 6 6 7 7 7 7 7 6 6
5 10 10 4 15 4 11 1 4 -6 12 1 2 9 6 5 4 2 5 4 3 8 7 10 10 10 10 8 5 4 4 4 5 5 4 4 6 6 6 6 6 6 6 7 7 7 7 7 7
8 10 12 6 13 9 3 10 8 8 -5 7 -0 -2 1 4 4 3 5 4 2 3 9 7 9 10 9 9 8 7 6 5 5 6 6 7 6 6 6 6 6 6 6 7 7 7 7 6 6
12 13 7 -3 8 14 11 14 1 9 2 5 2 0 3 3 6 6 5 5 4 4 4 9 8 9 11 10 10 11 12 11 10 8 7 6 6 6 6 6 6 6 7 7 7 8 8 6 6
16 3 15 6 9 8 -4 9 12 7 -8 8 6 9 1 3 3 6 6 5 3 4 5 6 8 9 9 10 10 10 9 9 8 6 6 6 6 6 6 6 6 6 7 8 9 9 8 7 6
6 10 -3 8 20 8 8 -2 14 12 -3 1 -0 -13 1 3 1 3 7 5 3 4 3 4 4 6 9 10 10 9 8 6 4 4 4 5 5 4 5 6 6 6 8 8 9 9 8 7 6
5 -1 17 6 9 10 9 10 3 12 9 5 6 -0 3 3 3 2 3 3 3 3 3 3 4 4 7 11 10 8 5 4 3 4 5 4 4 4 4 4 4 4 6 8 10 10 9 8 7
20 6 11 6 8 8 8 7 7 16 9 8 5 4 4 6 3 1 -1 4 1 0 3 3 3 3 6 10 9 9 7 6 6 6 5 5 6 5 4 4 3 3 4 5 8 10 10 9 8
-5 12 10 9 12 -2 7 13 7 13 9 10 7 3 4 8 4 1 1 0 1 1 0 3 5 2 2 6 9 9 9 7 5 4 4 4 6 6 6 5 4 3 3 5 6 7 9 11 9
2 14 5 10 7 7 7 3 16 12 17 11 11 10 11 6 2 1 -1 -1 2 4 3 7 3 3 4 6 7 8 11 11 6 5 5 5 6 6 6 5 5 4 3 4 5 5 6 9 12
12 2 8 -3 5 -8 5 6 -1 13 11 12 7 1 3 7 6 3 12 17 11 8 3 3 3 3 4 5 3 5 5 8 11 12 10 9 7 7 6 5 6 5 4 4 4 5 5 6 7
7 1 22 10 4 28 6 3 8 10 5 6 12 8 2 9 15 13 8 13 17 18 17 11 7 4 4 3 1 1 2 2 5 9 4 4 6 7 7 6 7 6 4 3 4 7 7 8 8
14 17 4 21 1 8 18 11 15 29 35 22 21 23 18 21 26 22 20 19 20 21 12 12 14 16 11 6 3 5 2 2 -1 3 16 4 3 3 4 6 7 5 3 4 6 7 9 11 10
6 10 14 7 10 10 8 17 10 18 18 19 22 16 8 5 14 9 9 13 15 15 13 16 17 7 11 16 6 7 7 5 7 7 12 3 5 8 8 7 5 3 4 6 6 6 8 10 11
6 7 8 7 2 18 12 10 7 19 9 14 8 6 5 4 6 8 7 7 9 7 16 22 17 24 9 3 24 4 7 7 6 10 7 6 2 6 8 7 4 4 5 5 5 7 8 9 10
5 15 7 1 18 9 -2 18 1 4 6 7 13 4 3 4 5 6 8 8 9 12 11 15 20 25 19 3 17 5 8 7 6 1 3 12 4 8 5 5 6 6 6 7 6 5 7 7 9
12 3 1 3 10 9 6 17 16 -2 -0 1 5 2 6 11 12 10 9 10 13 9 8 13 14 16 17 10 13 7 9 10 3 6 9 11 10 7 10 7 6 9 11 10 5 5 6 3 5
5 3 8 15 14 18 4 3 17 0 5 -4 3 5 10 10 8 6 8 7 7 11 12 11 12 11 10 8 8 8 8 8 11 10 12 12 12 10 4 3 8 10 12 8 4 3 2 2 3
7 7 25 10 8 14 9 13 -18 13 -6 -9 4 3 0 2 4 7 8 4 4 6 9 9 8 9 12 15 15 13 12 10 8 8 5 6 7 6 8 11 13 13 12 7 3 3 2 5 2
7 4 -2 13 9 10 4 14 8 15 -0 6 7 2 2 4 3 2 2 4 5 5 5 7 6 5 7 9 11 13 13 13 12 13 14 14 13 13 12 12 11 9 8 5 3 2 2 5 3
22 13 7 8 8 13 9 9 11 2 9 -2 -6 -4 1 5 6 8 -3 -2 9 10 9 7 1 0 2 3 4 5 5 7 11 16 13 10 7 8 10 6 3 4 6 7 9 10 12 12 9
-8 13 8 7 10 10 10 12 -4 6 12 8 18 9 2 10 -1 0 1 8 8 7 0 3 5 10 9 3 2 1 2 4 4 5 9 10 12 11 7 6 5 4 7 9 7 6 7 7 9
15 6 0 -5 3 5 8 12 8 8 20 22 -2 -1 -6 2 -14 -9 7 8 14 18 17 16 14 14 14 12 10 10 3 5 5 7 4 0 8 9 7 5 3 2 4 6 6 1 1 0 5
-1 16 5 -11 17 -1 11 12 13 25 9 4 -3 3 1 15 -19 3 9 15 10 6 8 11 15 13 13 13 15 15 21 22 19 12 9 13 13 8 14 14 10 11 10 9 7 5 4 3 4
Height
3146 3149 3151 3155 3161 3157 3152 3153 3154 3154 3154 3152 3153 3155 3155 3153 3153 3155 3149 3147 3145 3143 3141 3140 3138 3136 3136 3136 3136 3137 3136 3137 3137 3137 3136 3136 3136 3136 3137 3137 3136 3136 3135 3134 3133 3132 3131 3130 3129
3145 3148 3150 3153 3156 3152 3151 3152 3153 3154 3151 3152 3153 3154 3154 3153 3151 3149 3148 3146 3144 3142 3140 3139 3137 3136 3136 3136 3136 3136 3136 3137 3137 3137 3137 3137 3137 3137 3137 3136 3136 3135 3134 3133 3132 3131 3130 3129 3128
3144 3146 3150 3152 3151 3149 3149 3150 3152 3150 3150 3152 3153 3153 3153 3152 3151 3149 3147 3145 3144 3142 3140 3139 3137 3135 3136 3136 3136 3136 3137 3138 3138 3138 3137 3137 3137 3137 3137 3135 3135 3134 3133 3132 3132 3130 3129 3128 3127
3143 3146 3148 3148 3148 3150 3149 3149 3150 3150 3151 3152 3153 3153 3153 3152 3150 3149 3147 3145 3143 3141 3140 3139 3137 3136 3137 3137 3136 3137 3137 3138 3138 3137 3137 3137 3137 3136 3135 3134 3134 3132 3132 3132 3130 3128 3127 3127 3126
3143 3145 3147 3146 3147 3148 3150 3149 3149 3150 3150 3151 3152 3153 3151 3151 3150 3148 3147 3145 3143 3141 3140 3138 3137 3137 3137 3137 3137 3136 3137 3138 3137 3137 3137 3136 3135 3134 3134 3133 3132 3131 3131 3130 3129 3127 3126 3126 3126
3143 3145 3145 3144 3146 3147 3148 3149 3148 3149 3151 3151 3152 3151 3150 3150 3149 3148 3146 3144 3142 3140 3139 3138 3137 3136 3137 3137 3137 3137 3137 3137 3136 3136 3135 3135 3134 3133 3132 3131 3131 3130 3129 3128 3127 3126 3125 3125 3125
3141 3145 3144 3144 3144 3145 3146 3146 3148 3149 3150 3150 3150 3152 3150 3149 3148 3146 3146 3145 3142 3140 3139 3138 3137 3136 3136 3137 3137 3136 3136 3135 3135 3135 3134 3133 3133 3132 3130 3130 3130 3129 3129 3128 3126 3125 3125 3125 3124
3139 3143 3142 3143 3142 3144 3145 3143 3145 3147 3150 3148 3149 3152 3150 3148 3147 3146 3145 3144 3143 3141 3140 3137 3136 3136 3135 3136 3135 3135 3134 3134 3134 3133 3132 3132 3131 3130 3129 3129 3129 3127 3126 3126 3125 3125 3124 3124 3123
3137 3139 3139 3141 3142 3144 3140 3142 3143 3144 3145 3147 3148 3148 3148 3147 3146 3145 3144 3142 3142 3141 3139 3138 3136 3135 3134 3134 3134 3133 3133 3133 3132 3131 3131 3130 3129 3128 3128 3128 3126 3126 3125 3124 3123 3123 3123 3122 3122
3134 3135 3138 3140 3140 3141 3137 3139 3141 3142 3143 3145 3146 3146 3145 3145 3144 3143 3143 3141 3141 3140 3138 3136 3135 3135 3134 3133 3132 3131 3131 3131 3130 3129 3129 3128 3127 3127 3126 3126 3126 3125 3125 3124 3123 3122 3121 3120 3120
3132 3132 3136 3136 3136 3134 3135 3137 3138 3140 3141 3143 3145 3142 3143 3143 3143 3142 3142 3140 3140 3139 3137 3135 3135 3134 3133 3132 3130 3130 3129 3129 3128 3127 3127 3127 3126 3125 3125 3125 3124 3123 3123 3122 3121 3120 3119 3118 3117
3130 3131 3133 3134 3132 3133 3134 3135 3136 3137 3140 3140 3141 3141 3141 3141 3141 3140 3139 3138 3137 3136 3135 3134 3133 3133 3132 3130 3129 3128 3128 3127 3126 3127 3127 3125 3124 3124 3124 3123 3122 3121 3121 3119 3118 3117 3116 3116 3115
3128 3129 3130 3131 3130 3130 3131 3134 3133 3134 3137 3137 3138 3139 3138 3138 3138 3138 3136 3136 3136 3134 3133 3132 3132 3131 3130 3129 3128 3127 3127 3126 3125 3125 3125 3124 3124 3123 3122 3122 3120 3119 3118 3116 3115 3114 3112 3112 3111
3127 3127 3129 3129 3129 3128 3130 3131 3130 3133 3133 3134 3135 3136 3135 3135 3135 3134 3134 3134 3134 3132 3131 3130 3129 3128 3128 3127 3125 3125 3124 3124 3123 3123 3123 3123 3122 3120 3120 3119 3118 3116 3115 3114 3112 3110 3109 3108 3108
3124 3125 3127 3127 3127 3127 3127 3128 3126 3131 3129 3131 3132 3132 3131 3132 3132 3132 3132 3131 3131 3129 3128 3127 3126 3124 3123 3124 3123 3122 3121 3121 3120 3120 3119 3118 3118 3117 3116 3115 3114 3112 3111 3110 3109 3107 3105 3104 3103
3123 3125 3126 3126 3125 3125 3127 3127 3128 3127 3127 3128 3128 3128 3128 3129 3129 3128 3128 3128 3127 3126 3125 3124 3122 3121 3121 3120 3120 3119 3118 3117 3116 3116 3115 3115 3114 3112 3111 3110 3109 3108 3106 3106 3105 3104 3102 3100 3099
3121 3122 3123 3123 3122 3123 3126 3126 3127 3124 3123 3123 3124 3125 3126 3125 3124 3123 3123 3121 3120 3121 3120 3119 3118 3117 3118 3117 3116 3115 3114 3113 3112 3112 3111 3110 3109 3108 3107 3106 3105 3103 3102 3101 3100 3099 3098 3096 3094
3118 3121 3120 3121 3121 3121 3123 3123 3123 3121 3119 3118 3119 3119 3119 3119 3119 3118 3116 3114 3113 3113 3113 3114 3113 3113 3113 3112 3111 3111 3110 3110 3109 3108 3108 3107 3105 3104 3102 3101 3100 3099 3098 3096 3095 3094 3092 3090 3088
3117 3119 3119 3119 3118 3120 3121 3120 3118 3115 3114 3114 3115 3114 3113 3113 3113 3111 3110 3110 3109 3108 3107 3107 3108 3108 3108 3107 3107 3107 3107 3107 3106 3105 3105 3103 3102 3100 3098 3097 3096 3094 3092 3091 3089 3087 3086 3084 3082
3118 3118 3118 3118 3118 3119 3118 3117 3116 3114 3112 3112 3112 3111 3110 3110 3109 3109 3108 3107 3106 3105 3104 3102 3102 3102 3101 3102 3103 3103 3103 3102 3102 3101 3100 3099 3097 3095 3092 3091 3090 3088 3086 3086 3084 3082 3079 3078 3076
3118 3116 3117 3118 3118 3117 3116 3118 3117 3114 3113 3112 3110 3109 3109 3108 3108 3107 3106 3105 3103 3102 3100 3098 3097 3097 3097 3098 3098 3098 3098 3097 3096 3096 3094 3093 3092 3090 3087 3085 3083 3082 3080 3080 3078 3076 3073 3070 3069
3116 3115 3115 3116 3117 3114 3115 3114 3117 3115 3113 3111 3109 3108 3107 3107 3106 3105 3103 3102 3100 3098 3097 3094 3093 3092 3093 3094 3094 3094 3093 3091 3092 3091 3089 3087 3085 3084 3081 3079 3076 3075 3073 3073 3072 3069 3067 3064 3062
3115 3114 3115 3115 3115 3115 3114 3114 3112 3113 3112 3110 3108 3106 3105 3104 3103 3102 3101 3099 3098 3096 3094 3092 3090 3089 3089 3089 3089 3088 3087 3087 3086 3084 3081 3079 3077 3076 3075 3073 3070 3068 3066 3066 3065 3062 3060 3058 3055
3112 3114 3114 3113 3114 3112 3110 3112 3108 3109 3110 3108 3106 3105 3104 3103 3102 3100 3098 3097 3095 3093 3091 3090 3088 3086 3086 3085 3084 3083 3081 3080 3078 3077 3073 3072 3069 3068 3067 3066 3063 3061 3058 3058 3057 3055 3052 3051 3048
3112 3114 3110 3109 3110 3105 3109 3110 3106 3106 3105 3105 3104 3103 3103 3102 3101 3100 3098 3096 3094 3092 3090 3088 3087 3085 3084 3082 3081 3079 3077 3076 3073 3072 3069 3067 3065 3064 3062 3059 3057 3054 3052 3051 3049 3046 3044 3042 3039
3112 3113 3110 3108 3103 3105 3109 3106 3104 3103 3102 3102 3102 3101 3101 3100 3099 3097 3095 3094 3092 3090 3088 3086 3084 3082 3080 3078 3076 3074 3071 3069 3066 3064 3062 3060 3057 3055 3053 3050 3049 3047 3044 3042 3040 3037 3035 3033 3030
3110 3112 3112 3113 3112 3111 3105 3103 3101 3100 3099 3099 3099 3098 3098 3097 3095 3093 3091 3090 3088 3086 3084 3082 3080 3078 3076 3073 3071 3069 3066 3064 3061 3058 3055 3053 3051 3048 3046 3043 3041 3039 3037 3034 3031 3027 3026 3022 3019
3107 3110 3112 3112 3109 3108 3103 3101 3098 3098 3096 3096 3096 3094 3093 3092 3090 3088 3086 3085 3083 3081 3080 3078 3075 3073 3070 3068 3065 3063 3060 3057 3054 3051 3048 3045 3043 3040 3038 3036 3033 3030 3027 3025 3021 3017 3016 3012 3009
3106 3108 3109 3110 3110 3104 3102 3097 3095 3094 3095 3094 3093 3091 3089 3089 3086 3083 3081 3079 3075 3072 3070 3068 3065 3063 3060 3058 3055 3053 3051 3048 3045 3042 3039 3036 3035 3032 3028 3026 3023 3020 3017 3015 3011 3007 3005 3001 2998
3102 3106 3107 3106 3106 3105 3104 3096 3091 3091 3090 3091 3090 3087 3085 3083 3080 3077 3074 3072 3068 3066 3063 3061 3057 3055 3052 3049 3046 3043 3039 3036 3033 3031 3028 3024 3022 3020 3016 3014 3012 3009 3006 3003 3000 2996 2994 2989 2985